Theta_e
321 315 315 310 298 296 291 293 296 296 297 302 303 303 303 305 302 301 336 343 345 346 352 352 349 351 352 352 351 352 354 356 356 356 355 354 354 354 353 354 354 356 358 358 355 354 355 356 353
314 314 311 304 294 290 293 294 295 298 300 304 304 304 303 303 309 316 336 344 346 347 351 352 349 351 351 351 351 352 354 355 356 356 356 355 354 354 354 353 353 356 357 357 355 354 354 353 349
313 310 305 301 292 291 292 294 297 299 303 303 303 305 305 306 313 321 342 346 346 347 350 351 348 349 350 350 351 351 352 352 353 354 355 356 355 355 354 353 353 356 356 356 354 355 354 349 346
311 310 303 294 292 293 293 296 298 300 303 304 304 302 308 310 321 332 342 346 346 347 349 348 346 347 349 350 350 351 350 349 350 352 354 355 355 355 353 352 354 356 356 356 355 354 351 346 345
306 303 295 292 292 294 297 298 300 300 301 303 304 302 305 311 324 337 343 345 345 347 350 351 344 347 349 350 350 349 348 348 349 350 352 353 354 353 352 351 352 354 354 353 353 351 347 345 344
300 301 292 290 293 295 298 301 301 301 302 304 303 304 306 311 322 335 343 343 345 347 349 351 347 347 347 348 348 346 346 347 347 348 350 351 351 351 350 350 350 350 350 349 349 347 346 345 344
297 296 291 291 291 294 297 302 299 301 303 304 305 303 308 311 327 340 339 342 345 346 348 350 351 350 344 343 343 343 344 345 346 346 347 349 348 347 348 349 348 349 348 347 346 345 344 344 344
298 297 290 292 292 293 300 302 304 303 303 308 307 302 304 311 327 340 339 341 342 343 345 346 348 348 350 351 341 342 342 343 343 345 344 344 345 346 346 346 347 347 344 345 343 343 343 343 341
301 293 289 291 292 294 302 301 305 308 305 305 306 307 309 312 324 335 337 336 340 340 339 342 344 345 347 347 348 344 343 343 342 344 343 342 350 351 350 346 344 342 340 341 341 341 340 339 338
300 293 291 297 298 297 300 301 302 302 302 303 304 307 309 309 310 319 330 335 335 337 338 339 340 342 343 342 344 348 349 348 348 349 350 350 350 350 348 345 341 340 338 339 338 338 338 337 344
295 291 296 298 301 302 300 300 303 301 298 301 302 304 307 307 308 310 315 333 337 337 338 338 337 340 340 340 340 343 344 344 345 345 345 349 349 348 348 349 347 348 341 346 341 342 343 343 343
291 294 296 297 300 300 298 301 298 299 300 304 305 305 303 304 306 307 308 313 328 338 338 340 339 336 337 338 338 340 340 341 342 341 343 342 343 344 344 343 345 346 344 342 344 342 343 341 341
293 295 297 298 298 298 299 297 298 298 302 303 302 302 303 303 304 306 307 308 310 317 333 340 340 338 337 336 337 338 339 339 339 340 341 343 341 340 340 340 340 342 342 340 340 339 339 339 339
295 295 296 296 296 296 295 297 295 299 302 300 300 300 301 302 304 304 306 307 308 310 313 336 340 340 339 339 337 336 338 339 338 338 339 342 340 339 338 336 336 336 337 337 336 334 336 336 337
296 293 295 296 297 296 297 294 293 300 298 298 300 301 301 302 303 303 304 305 306 307 308 313 334 342 340 339 339 338 338 337 336 336 339 340 340 339 337 335 335 335 335 334 332 331 332 334 336
292 292 288 294 295 296 296 290 296 298 297 298 299 300 300 301 301 304 310 312 314 313 312 311 312 336 341 340 338 339 338 337 335 335 337 339 338 337 335 334 334 336 333 331 329 329 329 330 329
289 285 287 290 295 294 293 290 296 299 297 297 298 299 298 301 310 311 312 313 314 315 315 313 312 318 337 340 341 340 338 337 336 336 335 337 337 334 334 333 333 336 333 331 329 328 328 328 328
284 285 287 287 291 291 290 290 294 296 296 296 297 297 303 307 308 310 311 311 313 314 314 315 314 313 329 339 340 339 338 339 339 336 335 336 336 333 332 332 332 333 332 329 329 326 328 329 328
289 287 286 289 291 288 289 290 293 296 295 296 296 304 305 306 308 309 310 310 311 312 312 313 313 316 316 336 335 332 330 333 335 336 335 335 334 332 330 330 330 331 330 329 328 327 326 326 328
288 286 285 288 290 289 291 290 294 295 295 296 303 303 304 305 306 307 307 308 308 308 310 310 312 314 314 327 335 335 332 333 336 336 334 335 333 331 329 329 329 329 328 328 328 326 324 325 327
286 285 286 287 290 292 289 288 290 293 299 303 304 303 304 304 303 304 304 305 306 306 307 307 309 311 314 318 334 335 334 334 331 333 332 333 334 331 330 331 330 328 329 327 327 327 324 322 325
285 290 290 288 287 284 290 282 288 292 295 300 301 302 304 303 303 303 302 302 303 304 304 304 306 310 314 319 329 331 327 325 331 333 332 332 330 329 328 330 331 329 328 327 329 328 326 325 321
288 292 289 289 286 286 286 284 287 291 293 297 300 303 302 302 301 300 300 300 301 300 300 302 304 306 312 319 326 333 329 332 335 334 330 330 332 329 323 322 328 328 328 329 330 326 326 325 324
293 290 290 288 287 281 286 285 284 289 293 296 300 302 300 299 298 298 299 298 297 298 298 299 301 303 308 320 327 332 330 331 331 330 329 331 329 324 324 326 328 329 328 329 330 328 326 325 325
291 287 280 279 279 278 285 283 287 291 296 298 299 298 297 296 295 295 295 294 294 295 296 298 299 301 306 311 330 331 330 331 331 330 329 328 326 323 324 328 327 327 329 329 331 326 327 325 324
287 287 281 275 277 280 285 281 287 296 301 299 297 296 295 294 293 293 293 293 292 293 294 295 298 299 304 308 330 330 328 328 331 332 328 328 327 327 328 328 329 328 329 326 327 326 326 326 324
287 285 289 283 283 280 283 286 292 297 297 296 294 293 292 291 292 292 292 292 291 292 293 294 296 298 303 309 329 329 325 324 325 331 331 330 328 327 326 327 326 325 324 325 327 324 325 325 324
289 290 284 285 276 275 280 283 285 290 291 292 292 292 291 291 291 291 291 291 291 292 292 293 295 298 302 308 326 324 324 325 324 325 324 325 325 323 325 325 324 323 324 327 326 324 324 324 324
282 283 286 286 284 279 277 281 291 290 291 290 290 291 290 290 290 290 290 290 290 290 291 292 293 296 301 303 320 323 323 321 321 322 324 324 322 322 322 322 323 324 324 325 323 323 323 322 322
287 285 285 279 278 281 280 281 293 292 291 291 290 290 290 290 289 289 289 289 288 288 289 289 292 293 298 300 308 320 321 322 322 321 322 323 320 320 321 322 322 321 322 321 321 320 321 321 320
Wind_Speed
1 2 1 2 3 1 3 5 2 3 2 2 5 4 5 8 7 7 7 6 3 14 14 17 16 15 13 11 9 9 10 11 11 12 15 17 17 17 17 17 17 17 16 17 17 15 14 12 10
3 1 2 2 3 4 5 3 7 4 2 9 4 3 2 2 5 9 7 5 8 14 15 16 17 17 15 12 10 10 9 11 11 10 12 15 16 16 15 15 14 15 16 16 17 16 14 13 12
2 3 2 2 3 9 5 5 4 3 7 3 3 1 4 8 11 10 11 7 8 14 16 16 18 16 15 13 11 10 9 11 11 10 10 13 15 16 15 13 13 15 16 16 16 15 12 13 12
1 2 3 4 13 5 5 2 3 5 1 2 3 2 4 2 10 11 11 4 10 14 15 16 17 17 16 15 14 13 12 11 12 11 11 12 14 15 14 13 14 15 15 15 14 13 11 12 11
3 2 2 5 7 6 7 6 6 4 7 5 2 3 8 3 11 12 2 3 5 7 12 16 16 18 18 17 17 16 14 13 13 12 11 12 13 14 14 13 13 14 14 13 14 13 11 11 12
4 1 3 9 12 5 7 6 6 6 3 4 1 9 6 3 19 14 4 3 1 7 8 12 13 14 14 15 15 14 15 15 14 14 12 11 11 11 12 13 12 12 11 11 10 11 11 11 12
4 4 4 4 6 5 5 3 4 4 2 4 2 6 5 11 13 9 3 4 5 2 5 7 10 12 9 7 8 9 11 13 14 14 13 12 10 11 11 11 10 11 11 11 10 10 12 12 13
4 3 4 6 9 10 5 2 2 4 6 6 1 1 7 18 10 5 2 5 6 4 4 6 7 8 11 12 8 10 10 10 10 11 11 13 12 11 11 10 9 10 9 10 9 12 13 14 14
3 4 7 8 8 4 2 2 1 2 7 3 2 11 12 14 9 6 5 2 5 5 3 3 5 6 8 9 9 9 10 9 8 9 9 11 10 12 12 11 10 8 9 9 11 13 12 11 12
5 5 10 7 7 4 4 3 7 6 9 11 16 8 10 11 10 9 7 6 4 7 7 6 4 4 5 7 8 10 10 10 10 10 11 9 11 10 10 9 9 9 10 9 9 11 11 11 8
6 8 6 5 9 6 5 7 5 10 14 11 13 15 14 11 11 8 9 6 8 8 8 9 6 6 6 6 6 5 6 7 6 9 10 9 8 8 8 6 7 8 9 7 7 8 9 11 9
6 7 9 4 9 8 11 11 14 11 17 15 14 14 9 13 11 11 11 10 6 8 11 13 15 10 7 5 5 7 7 7 6 7 11 9 6 8 8 6 8 8 7 8 8 6 9 10 11
9 6 7 9 8 9 9 14 14 12 17 13 9 10 11 9 11 11 10 11 11 9 11 13 15 15 12 10 6 6 9 8 9 8 11 9 7 8 7 7 7 8 8 8 7 8 9 11 11
5 8 9 7 11 6 8 8 7 12 10 9 5 8 8 9 10 10 10 12 12 12 10 10 15 16 16 15 14 10 9 10 8 7 10 11 8 7 7 7 7 8 8 6 7 6 8 9 9
4 7 6 8 7 8 5 8 9 14 5 6 13 10 10 8 9 8 10 11 11 12 15 10 13 13 14 18 15 11 11 10 10 8 10 11 9 8 8 7 7 8 7 9 6 6 5 6 8
3 1 4 1 6 1 8 6 9 3 4 12 12 11 9 13 8 6 9 10 12 12 12 15 10 13 19 17 13 11 11 11 8 8 8 14 11 9 8 7 7 9 7 7 6 6 6 6 6
3 7 5 4 6 4 6 2 8 9 10 12 11 11 10 8 8 8 9 11 13 13 14 15 12 14 16 16 13 14 15 11 11 10 10 13 13 12 9 8 8 11 8 7 7 6 7 7 7
7 6 5 4 3 3 8 13 15 14 10 12 10 6 4 9 11 14 13 12 12 13 13 15 13 13 14 12 11 9 9 11 10 12 12 15 11 13 10 8 9 10 9 8 7 8 6 7 6
3 3 7 7 9 4 10 10 13 14 7 11 3 1 4 7 11 12 15 14 12 12 16 15 16 16 11 11 12 11 12 12 12 12 14 15 12 13 12 9 9 10 9 10 10 8 10 5 7
9 9 11 10 10 7 10 13 14 12 6 3 4 1 4 8 13 15 17 18 18 17 14 18 17 16 13 12 11 12 12 11 10 8 11 14 15 14 12 12 11 10 8 11 11 9 5 4 9
8 10 7 9 4 6 6 6 2 3 5 6 5 2 3 7 12 15 17 17 16 18 18 16 20 19 16 16 12 10 8 5 7 11 12 15 16 14 12 13 10 11 10 9 12 11 10 7 8
13 13 14 9 3 4 3 6 3 4 2 5 1 4 7 11 12 13 14 16 17 17 17 17 19 19 17 16 16 19 13 14 13 12 9 10 12 12 8 6 11 12 8 10 11 10 9 8 9
8 9 11 7 6 2 3 6 0 3 4 4 3 6 9 11 15 16 17 18 17 16 17 16 19 19 17 18 19 16 15 13 9 10 14 13 15 16 16 11 14 12 10 11 14 11 10 9 7
5 6 4 3 3 6 12 11 4 4 4 2 2 7 10 14 16 17 17 19 18 16 16 17 19 19 18 20 19 20 20 16 11 14 12 13 12 11 15 18 15 12 11 12 12 12 13 10 9
11 6 4 4 5 5 4 8 8 7 4 2 4 9 12 14 16 17 20 18 18 19 18 17 18 19 20 19 16 17 17 19 18 16 13 14 11 11 16 18 17 12 12 10 13 11 12 12 10
9 7 5 6 5 3 3 6 2 7 11 11 9 9 11 15 16 18 19 18 16 19 19 20 20 20 18 16 13 10 11 8 10 13 11 10 10 9 11 16 14 13 14 10 10 8 9 10 10
4 5 1 2 1 3 6 3 6 11 9 8 9 10 12 14 15 17 18 18 16 18 19 19 20 19 18 18 8 10 10 9 8 13 11 7 4 5 11 13 12 11 11 12 13 7 9 9 10
2 3 3 1 5 7 4 4 2 9 8 8 11 11 11 12 14 14 15 18 17 17 18 18 18 18 18 19 5 7 9 10 8 8 9 10 8 6 6 8 10 11 10 13 11 9 9 9 7
3 2 4 2 1 3 4 3 2 2 4 4 6 7 9 12 14 14 15 17 16 17 16 16 18 20 20 18 6 5 8 9 8 9 11 11 12 14 6 8 9 10 9 10 9 9 8 9 8
1 2 3 2 4 1 3 3 3 5 3 3 4 6 8 10 13 13 15 18 17 18 19 19 19 19 17 15 15 3 2 6 9 8 12 10 13 13 9 9 9 11 9 8 7 7 6 8 8
Wind_Direction
66 47 32 46 220 303 241 239 322 229 203 165 292 234 294 261 236 269 348 251 152 152 159 154 141 146 154 159 152 145 140 132 136 151 158 156 157 157 155 155 154 158 159 155 160 159 151 154 145
107 104 69 94 213 218 239 205 216 219 293 306 281 296 231 267 241 281 320 157 156 154 158 161 150 150 154 158 153 150 144 131 130 142 150 153 153 156 155 156 155 156 157 158 166 161 155 139 143
102 34 166 208 196 228 244 211 203 168 301 324 355 304 305 340 347 305 354 164 183 168 166 166 155 149 151 153 152 151 148 140 133 136 145 151 155 156 157 156 156 158 159 163 168 164 155 145 147
96 89 90 240 233 247 241 179 174 317 251 353 351 325 304 116 348 315 308 227 183 175 171 157 155 155 153 156 159 158 158 151 141 141 149 156 155 154 153 155 161 162 164 167 167 157 158 154 151
52 77 189 246 256 267 252 261 272 278 300 294 282 309 287 302 347 350 18 152 211 218 179 166 156 158 161 165 166 164 161 156 152 152 156 161 160 155 155 159 168 169 171 174 168 158 163 159 148
107 112 191 239 247 250 273 251 263 247 245 295 315 318 280 335 2 351 350 133 225 204 213 173 160 159 165 170 170 165 165 163 160 161 165 163 157 154 160 169 170 173 173 178 172 158 167 154 151
140 152 214 253 266 277 258 224 241 251 251 298 317 298 282 343 349 347 352 83 83 137 195 191 175 172 159 167 167 165 168 169 166 166 165 165 166 163 171 181 180 182 176 176 172 162 162 161 160
124 185 188 218 243 267 254 247 307 256 290 311 264 297 319 313 331 340 333 107 97 93 191 207 198 181 187 189 173 176 175 174 173 174 170 167 169 174 177 182 182 182 177 177 178 166 167 172 172
151 191 225 231 196 243 206 269 266 321 286 306 288 304 287 307 312 306 290 150 126 131 175 205 213 211 199 194 191 185 185 179 179 181 181 170 185 187 186 190 181 179 172 175 179 173 170 158 159
194 213 223 204 206 231 275 261 302 289 288 290 293 283 278 295 318 310 306 272 185 183 185 199 205 221 222 218 211 201 200 196 189 197 197 195 189 187 192 189 181 169 174 179 179 170 157 168 176
178 235 209 214 227 243 255 278 278 278 279 263 285 297 303 305 313 307 307 267 261 200 181 191 200 214 215 218 213 217 204 205 193 192 198 203 193 185 188 189 192 195 181 190 194 177 185 183 185
227 232 228 224 234 246 255 275 270 257 266 264 269 283 287 297 303 299 296 292 268 223 219 194 189 190 211 221 219 215 218 205 206 195 197 195 195 192 185 187 187 187 186 186 193 190 189 192 196
228 242 232 233 247 251 257 253 257 263 261 273 275 282 283 286 291 297 295 289 283 260 245 213 197 195 192 200 215 214 216 217 214 198 200 193 194 197 178 183 180 188 182 185 193 191 190 197 202
201 221 252 253 247 237 230 251 173 252 261 279 298 285 287 292 292 301 315 316 313 304 280 245 215 205 189 200 194 205 213 214 212 202 207 197 195 193 184 176 177 181 180 168 179 186 191 200 206
253 271 271 231 235 235 178 240 224 252 299 299 303 301 298 300 313 311 319 319 320 313 310 276 242 230 210 209 203 198 201 212 213 207 199 194 196 195 183 178 176 180 170 161 159 175 180 204 209
254 230 255 232 164 209 188 238 277 288 153 311 307 297 311 320 341 1 349 340 333 324 316 305 279 226 214 212 210 203 200 197 200 201 202 193 189 186 182 184 182 183 161 160 164 168 176 194 194
220 254 220 285 200 172 202 198 264 284 292 288 283 300 320 325 347 357 353 344 332 328 321 312 294 260 230 219 209 210 208 198 197 196 200 198 183 179 185 187 185 180 171 168 167 173 181 182 194
211 223 227 240 163 158 271 263 264 269 261 263 284 309 335 344 348 344 341 341 334 329 322 314 311 276 248 225 216 213 204 206 201 199 201 200 183 174 184 185 184 177 176 169 172 178 183 190 182
180 224 264 260 257 283 253 260 268 272 256 269 282 33 15 353 336 338 339 338 335 333 326 323 311 308 270 222 207 210 215 208 205 197 191 194 183 179 185 180 184 178 180 174 174 178 181 168 157
223 244 259 274 275 213 276 287 267 259 253 200 151 71 6 352 345 344 343 339 335 330 325 318 310 303 295 244 221 209 209 217 210 192 190 188 182 184 181 180 183 177 175 174 177 178 169 177 172
209 216 230 240 318 254 285 274 209 111 138 151 176 78 40 355 344 341 339 333 329 326 324 319 309 301 289 283 233 212 209 212 188 192 189 197 185 181 180 192 180 176 177 178 181 183 177 182 186
236 209 235 242 242 254 347 298 261 171 162 200 139 51 8 3 353 345 339 331 328 324 321 319 308 299 288 276 243 210 204 205 205 198 191 186 162 161 171 204 193 189 180 180 183 188 184 180 186
219 201 203 213 214 231 205 266 283 251 192 167 79 31 20 4 356 346 341 335 326 331 327 317 307 296 287 278 243 212 208 210 206 199 175 169 170 171 170 138 226 201 184 191 184 184 186 194 186
198 173 146 91 159 245 233 216 178 191 177 187 36 44 16 0 353 345 342 341 329 336 327 320 311 307 299 291 232 215 211 206 193 189 181 182 179 185 177 180 183 196 190 193 185 186 196 195 195
193 154 192 195 195 245 176 194 262 264 197 99 68 29 13 4 354 345 347 340 332 330 328 324 319 314 312 311 219 214 213 210 203 192 189 177 181 185 180 174 189 184 188 188 189 194 194 193 195
173 189 195 213 193 155 154 225 207 50 83 87 65 40 16 3 353 348 349 332 327 331 332 328 324 321 315 313 234 196 198 201 206 197 183 188 185 181 174 185 178 175 179 179 188 195 205 194 197
155 184 92 170 137 225 216 217 113 65 88 51 35 25 12 359 351 348 344 337 337 336 332 329 326 327 322 315 214 181 170 171 187 185 186 184 164 158 162 174 160 167 169 184 184 195 195 195 195
57 116 150 43 232 245 198 230 236 10 15 19 14 7 357 350 352 350 350 344 342 337 332 336 334 331 330 333 178 172 169 177 176 160 149 146 140 122 168 164 159 166 177 189 189 187 196 194 196
358 94 61 64 245 257 265 193 121 54 35 22 7 354 351 351 351 352 358 353 346 337 340 341 342 342 343 338 306 155 169 160 153 160 165 155 146 110 200 194 173 181 188 188 185 187 187 196 203
39 79 71 209 180 319 296 218 115 133 90 26 26 4 356 359 355 351 15 0 353 345 343 346 348 347 342 339 355 35 113 157 158 160 172 178 148 127 189 196 184 192 174 162 175 180 185 202 210